Temp
61 61 61 62 61 62 62 62 61 61 61 62 62 62 62 63 63 65 58 60 62 64 62 65 66 65 65 59 60 58 45 45 50 49 49 53 49 55 57 51 54 57 53 55 56
61 61 61 61 61 61 61 61 61 61 61 61 61 61 62 62 63 63 63 64 64 63 63 61 60 61 56 56 55 50 45 48 52 51 48 53 51 51 49 50 51 53 58 56 54
60 60 61 61 61 61 61 61 61 61 61 61 61 61 61 62 59 59 63 63 63 63 63 62 61 59 54 55 53 51 46 51 53 52 52 50 48 52 48 44 50 43 48 50 50
60 60 60 60 60 61 61 61 61 60 61 61 61 61 61 62 48 61 62 62 62 65 62 60 58 53 51 49 54 44 53 52 53 52 49 46 50 47 48 48 51 47 47 47 47
59 59 59 59 60 61 61 61 60 60 60 61 61 61 60 56 57 65 62 63 63 63 59 57 55 53 49 51 50 46 51 53 53 51 49 51 45 45 46 50 51 49 49 46 46
59 59 59 59 59 60 60 60 60 60 60 60 61 60 58 50 64 66 63 62 62 62 59 58 54 54 51 49 45 48 48 49 51 49 49 46 44 44 45 47 44 46 44 46 46
59 59 58 59 59 59 59 60 60 60 60 60 61 62 56 55 66 64 64 60 61 60 57 57 57 52 51 47 51 48 40 47 48 48 45 44 38 39 45 46 42 43 44 44 45
59 58 58 58 59 59 59 59 59 60 60 60 61 61 52 63 64 63 64 61 62 62 59 58 57 52 49 49 47 41 41 34 45 45 44 41 30 42 44 43 41 42 41 41 43
58 58 58 58 58 58 59 59 59 60 60 61 58 56 51 60 58 61 61 57 58 59 58 60 54 48 48 38 37 39 32 37 40 47 43 39 32 42 45 43 40 39 39 38 40
58 58 58 58 58 58 58 59 60 59 60 64 63 51 54 53 56 58 60 58 54 53 51 49 46 40 38 37 28 31 31 36 35 41 39 36 36 42 45 45 39 35 36 35 37
59 58 58 58 58 59 58 57 53 50 55 52 53 53 54 55 59 55 57 54 53 49 41 46 36 33 41 42 41 36 31 30 39 44 34 34 35 40 42 42 39 36 36 32 34
59 58 58 58 58 58 58 54 49 49 43 55 53 53 56 57 49 52 56 46 46 39 45 38 32 43 45 43 37 35 31 31 38 40 37 33 33 37 40 39 38 35 33 32 32
57 57 58 57 58 57 55 51 56 55 43 48 51 52 51 53 49 47 51 49 44 40 41 35 42 45 43 38 35 33 31 31 28 33 36 30 26 29 34 39 38 36 34 33 30
56 56 57 57 54 57 52 56 56 55 37 42 45 47 51 51 43 51 52 47 43 39 39 39 43 41 38 35 36 25 36 33 30 23 18 28 14 28 32 32 32 33 32 28 29
56 56 57 57 53 54 52 57 56 49 27 45 44 53 50 45 45 44 50 46 39 40 36 36 37 34 31 36 37 28 35 30 29 21 23 24 11 25 32 28 32 32 29 28 28
55 56 55 55 54 49 52 51 48 35 28 38 45 42 41 43 44 45 44 47 46 38 39 36 42 37 35 39 36 36 30 31 27 22 11 20 18 20 21 21 29 31 29 27 25
55 54 53 53 47 50 49 46 34 31 41 36 37 42 40 38 39 40 37 32 31 28 29 34 34 37 38 30 34 30 24 17 15 13 16 25 19 22 23 26 25 21 22 21 24
54 51 49 49 49 49 48 42 30 34 34 42 41 39 34 36 35 33 30 32 38 32 29 29 26 31 33 29 24 26 22 15 6 11 14 27 13 23 22 22 21 22 17 24 26
53 49 47 46 48 48 43 32 33 35 36 33 36 32 33 34 34 34 35 35 37 34 27 27 27 33 32 32 29 25 21 25 12 12 11 18 26 24 25 21 21 18 25 23 23
48 46 43 48 47 46 36 35 34 34 34 33 30 32 31 31 31 31 35 38 34 37 36 30 22 33 30 30 30 26 30 17 18 5 5 18 20 21 17 19 20 16 18 19 22
47 42 46 50 47 41 33 33 33 34 34 32 31 31 31 30 30 31 34 36 40 35 37 31 26 27 28 17 19 21 20 23 20 17 8 9 16 17 16 14 13 14 20 16 17
46 35 47 49 35 32 32 33 34 32 33 32 31 30 29 30 29 31 31 35 42 37 31 32 26 21 22 20 27 26 20 23 14 11 13 11 15 18 14 12 13 17 20 18 20
41 39 48 45 32 32 33 33 33 32 32 32 31 33 30 29 27 31 31 37 39 36 30 31 28 20 24 22 25 18 23 22 19 17 12 10 18 15 12 13 16 11 13 16 19
41 33 37 39 36 34 32 32 32 34 33 34 33 32 29 27 30 28 31 34 36 36 37 34 28 20 19 18 17 13 18 22 20 10 12 16 19 23 15 14 11 12 12 11 13
42 34 34 32 33 35 33 33 32 31 33 34 32 31 30 27 27 25 29 30 34 36 33 30 22 18 17 18 13 11 12 19 17 13 15 12 9 24 23 11 7 7 7 9 8
38 36 35 33 36 34 34 33 33 34 33 31 29 32 31 28 30 25 30 32 31 32 30 29 22 17 13 10 7 7 14 17 19 14 18 20 18 15 8 7 6 6 6 6 6
43 43 40 36 34 32 34 33 34 34 36 38 34 31 30 31 32 31 33 33 32 30 29 27 22 16 13 14 15 15 11 14 11 12 14 11 20 12 12 10 11 9 8 7 7
MSLP
1018.73 1018.32 1018.13 1017.92 1017.66 1017.44 1017.11 1016.99 1016.74 1016.46 1016.32 1016.03 1015.91 1015.83 1015.63 1015.27 1014.93 1014.62 1014.80 1015.51 1015.30 1014.98 1014.70 1013.75 1013.30 1013.08 1012.87 1012.59 1012.52 1012.31 1011.84 1010.74 1010.25 1010.49 1011.18 1012.03 1012.38 1012.39 1012.61 1013.18 1013.33 1013.42 1013.56 1014.10 1014.80
1018.68 1018.58 1018.24 1017.94 1017.79 1017.49 1017.23 1017.10 1016.92 1016.52 1016.32 1016.14 1016.04 1015.88 1015.73 1015.52 1014.83 1014.51 1015.47 1015.24 1015.10 1015.03 1014.33 1013.78 1013.21 1013.19 1012.86 1012.79 1012.72 1012.51 1011.97 1011.40 1011.41 1011.60 1011.98 1012.32 1012.77 1012.96 1013.23 1013.25 1013.36 1013.31 1013.43 1014.41 1015.25
1018.82 1018.58 1018.38 1018.12 1017.78 1017.50 1017.22 1017.05 1016.89 1016.65 1016.39 1016.22 1016.00 1015.99 1015.84 1015.64 1014.90 1014.72 1015.34 1015.16 1015.09 1014.93 1014.62 1014.38 1013.92 1013.46 1013.07 1013.03 1013.00 1012.60 1012.19 1012.11 1012.01 1012.50 1012.97 1013.23 1013.41 1013.51 1013.52 1013.34 1013.76 1014.32 1014.76 1015.20 1015.61
1018.81 1018.57 1018.42 1018.11 1017.86 1017.47 1017.20 1017.02 1016.71 1016.56 1016.44 1016.30 1016.05 1015.99 1015.79 1015.67 1015.44 1015.15 1015.30 1015.14 1014.96 1014.75 1014.55 1014.29 1014.13 1013.59 1013.18 1013.22 1013.35 1013.52 1012.58 1012.72 1012.82 1013.18 1013.72 1013.83 1013.81 1013.83 1013.91 1013.79 1014.09 1014.96 1015.52 1015.96 1016.23
1018.82 1018.52 1018.32 1018.04 1017.69 1017.43 1017.16 1016.90 1016.59 1016.51 1016.30 1016.26 1016.05 1016.02 1015.90 1015.38 1014.89 1015.04 1015.25 1015.15 1014.88 1014.59 1014.52 1014.28 1014.10 1013.82 1013.53 1013.49 1013.75 1013.72 1013.19 1013.26 1013.29 1013.56 1013.91 1014.03 1014.10 1014.28 1013.81 1013.97 1014.25 1015.09 1015.68 1016.16 1016.44
1018.76 1018.53 1018.26 1018.03 1017.63 1017.34 1017.01 1016.61 1016.31 1016.12 1016.09 1016.10 1016.09 1016.01 1015.80 1015.29 1014.99 1015.04 1015.19 1015.18 1015.01 1014.61 1014.65 1014.56 1014.53 1014.54 1014.24 1014.08 1014.28 1014.14 1013.98 1013.65 1013.47 1013.72 1013.96 1014.19 1014.21 1014.40 1013.66 1014.04 1014.86 1015.47 1015.99 1016.29 1016.59
1018.59 1018.43 1018.20 1017.90 1017.63 1017.26 1016.85 1016.46 1016.11 1015.82 1015.82 1015.92 1015.96 1015.89 1015.49 1015.02 1014.79 1015.13 1015.15 1015.32 1015.36 1015.17 1014.88 1015.21 1015.11 1014.87 1014.78 1014.46 1014.63 1014.64 1014.35 1013.37 1013.29 1013.75 1014.31 1014.80 1014.12 1013.83 1013.55 1014.06 1015.06 1015.67 1015.90 1016.14 1016.52
1018.64 1018.31 1018.10 1017.81 1017.45 1017.12 1016.68 1016.20 1015.99 1015.86 1015.82 1015.89 1015.89 1015.54 1015.15 1015.11 1014.93 1015.04 1015.18 1015.20 1015.40 1015.42 1015.42 1015.45 1015.39 1015.20 1015.05 1015.15 1014.96 1014.85 1014.29 1013.71 1013.08 1013.89 1014.59 1015.29 1014.09 1013.91 1013.92 1014.19 1014.87 1015.36 1015.77 1016.05 1016.61
1018.59 1018.33 1018.00 1017.78 1017.32 1016.85 1016.44 1016.08 1015.85 1015.83 1015.97 1015.98 1015.89 1015.54 1015.06 1015.34 1015.26 1015.47 1015.33 1015.22 1015.40 1015.51 1015.50 1015.45 1015.39 1015.31 1015.34 1015.40 1014.93 1014.61 1014.39 1013.69 1013.33 1013.43 1014.23 1014.95 1013.85 1013.61 1013.68 1013.82 1014.14 1014.82 1015.54 1015.98 1016.62
1018.38 1018.22 1017.91 1017.65 1017.21 1016.66 1016.21 1016.05 1015.85 1015.95 1015.80 1015.60 1015.47 1015.73 1015.25 1015.03 1015.32 1015.58 1015.74 1015.57 1015.52 1015.47 1015.44 1015.52 1015.33 1015.37 1015.42 1015.23 1015.07 1014.83 1014.81 1014.22 1014.06 1013.76 1014.29 1014.38 1013.07 1013.07 1012.91 1012.95 1013.35 1014.30 1015.18 1015.95 1016.71
1018.18 1018.09 1017.75 1017.52 1017.11 1016.69 1016.02 1016.03 1016.39 1016.33 1015.59 1014.84 1014.75 1014.76 1014.88 1015.56 1015.59 1015.66 1015.82 1015.74 1015.64 1015.65 1015.27 1015.21 1015.37 1014.99 1014.54 1014.60 1014.91 1015.41 1015.49 1015.13 1014.45 1014.03 1014.46 1014.13 1013.14 1012.81 1012.67 1012.52 1013.18 1014.07 1015.17 1016.08 1016.95
1018.10 1017.91 1017.70 1017.44 1017.07 1016.56 1016.32 1016.59 1017.74 1018.22 1016.40 1014.66 1014.86 1015.10 1015.18 1015.27 1015.51 1015.69 1015.98 1016.05 1015.70 1015.46 1015.12 1015.48 1014.96 1014.45 1014.75 1014.98 1015.51 1015.82 1015.89 1015.20 1014.38 1014.66 1015.20 1014.38 1013.07 1012.60 1012.51 1012.54 1013.13 1014.22 1015.30 1016.34 1017.27
1018.16 1017.77 1017.58 1017.33 1016.99 1016.99 1017.02 1017.86 1017.98 1017.93 1017.11 1015.48 1015.22 1015.04 1015.35 1015.76 1015.34 1015.91 1016.03 1015.81 1015.68 1015.39 1015.18 1015.25 1014.55 1014.75 1015.13 1015.45 1015.89 1016.02 1016.17 1015.98 1016.20 1015.86 1015.44 1015.34 1013.29 1012.78 1013.15 1013.06 1013.96 1015.04 1015.84 1016.73 1017.50
1018.45 1017.87 1017.35 1017.15 1017.42 1017.20 1017.70 1018.17 1017.99 1017.99 1017.12 1015.73 1015.47 1015.65 1015.56 1015.67 1016.01 1016.24 1016.27 1016.44 1015.89 1015.66 1015.35 1015.05 1014.91 1015.21 1015.54 1015.87 1016.20 1016.63 1016.35 1016.72 1017.08 1017.69 1017.32 1016.84 1015.67 1013.53 1013.62 1014.11 1014.82 1015.50 1016.17 1016.85 1017.61
1018.33 1017.93 1017.25 1017.25 1017.53 1017.61 1018.61 1018.23 1018.06 1017.99 1017.04 1015.52 1015.63 1015.86 1015.64 1016.02 1016.34 1016.55 1016.68 1016.53 1016.32 1015.79 1016.11 1015.19 1015.38 1015.74 1016.10 1016.10 1016.44 1016.58 1016.79 1017.27 1017.65 1018.36 1018.40 1017.41 1017.75 1014.20 1014.23 1014.79 1014.94 1015.37 1016.09 1016.99 1017.74
1018.12 1017.87 1017.51 1017.44 1017.75 1018.92 1018.67 1018.52 1018.43 1018.17 1016.42 1015.51 1015.60 1015.77 1015.68 1015.82 1016.09 1016.45 1016.71 1016.77 1016.69 1016.35 1015.80 1015.68 1016.03 1016.26 1016.43 1016.62 1016.96 1017.21 1017.28 1017.11 1018.00 1018.58 1018.56 1017.31 1017.67 1015.29 1015.66 1015.72 1015.62 1015.85 1016.74 1017.53 1018.35
1018.23 1018.22 1017.72 1017.93 1018.77 1018.88 1018.72 1018.59 1018.75 1017.73 1016.09 1016.49 1016.11 1016.08 1016.05 1015.81 1016.18 1016.57 1016.70 1016.94 1016.86 1016.67 1015.98 1015.74 1016.10 1016.74 1017.16 1017.37 1017.45 1017.77 1017.99 1018.28 1018.89 1018.86 1017.82 1017.45 1017.87 1015.70 1016.00 1016.26 1016.76 1017.15 1017.57 1018.28 1018.68
1018.30 1018.35 1018.70 1018.97 1018.97 1018.75 1018.79 1018.93 1018.84 1017.40 1017.00 1016.80 1016.72 1016.74 1016.60 1016.29 1016.45 1016.91 1016.99 1016.45 1015.93 1016.39 1016.50 1016.18 1016.74 1017.21 1017.77 1018.07 1018.23 1018.43 1018.80 1019.64 1020.13 1019.44 1018.68 1017.67 1017.16 1015.38 1016.09 1016.84 1017.40 1017.84 1018.21 1018.57 1018.64
1018.27 1018.73 1018.87 1019.16 1018.89 1018.89 1019.01 1019.17 1018.66 1018.46 1018.51 1018.07 1017.53 1017.46 1017.01 1016.88 1016.95 1016.98 1016.37 1015.85 1015.65 1016.27 1016.68 1016.55 1017.07 1017.82 1018.42 1018.72 1019.05 1019.07 1019.40 1019.91 1020.42 1020.15 1020.05 1017.18 1015.79 1016.02 1016.69 1017.40 1017.94 1018.28 1018.80 1019.09 1019.43
1018.48 1018.80 1019.20 1019.15 1018.96 1019.01 1019.26 1018.94 1019.38 1019.46 1019.69 1019.43 1018.83 1018.16 1017.47 1017.42 1017.45 1017.17 1016.08 1015.82 1016.21 1016.54 1016.77 1017.22 1017.62 1017.88 1018.99 1019.34 1019.47 1019.49 1019.85 1020.40 1021.05 1020.90 1019.84 1017.17 1016.39 1016.32 1017.32 1018.04 1018.47 1019.08 1019.60 1019.73 1020.01
1018.57 1018.72 1019.33 1019.17 1019.25 1019.15 1019.42 1019.39 1019.85 1020.32 1020.42 1020.15 1019.63 1019.07 1018.50 1018.18 1018.01 1017.60 1016.56 1016.48 1016.42 1016.95 1017.14 1017.54 1018.28 1018.65 1019.24 1019.76 1019.56 1020.24 1020.27 1020.63 1021.12 1021.14 1021.07 1019.32 1016.65 1016.18 1017.44 1018.45 1019.26 1019.86 1020.15 1020.16 1020.32
1018.33 1018.88 1019.26 1019.37 1019.70 1019.59 1019.49 1019.85 1020.44 1020.56 1020.71 1020.55 1020.43 1019.63 1019.37 1018.99 1018.55 1018.06 1017.24 1017.06 1017.04 1017.33 1017.59 1018.06 1018.49 1018.93 1019.24 1019.76 1019.94 1020.00 1020.21 1020.36 1021.39 1021.64 1021.38 1020.92 1017.77 1016.31 1017.59 1018.88 1019.46 1019.98 1020.16 1020.17 1020.28
1018.53 1018.91 1019.30 1019.36 1019.71 1019.59 1019.59 1019.89 1020.17 1020.45 1020.57 1020.56 1020.37 1020.00 1019.91 1019.62 1019.28 1018.31 1017.99 1017.92 1017.76 1017.83 1018.24 1018.55 1018.81 1019.45 1019.72 1020.65 1020.63 1020.93 1020.81 1020.80 1021.41 1021.73 1021.18 1020.92 1017.52 1016.73 1018.15 1019.03 1019.54 1020.12 1020.30 1020.20 1020.49
1018.62 1019.01 1019.44 1019.56 1019.86 1019.46 1019.58 1019.70 1020.04 1020.34 1020.42 1020.56 1020.39 1020.30 1020.15 1019.94 1019.62 1019.05 1018.70 1018.39 1018.36 1018.36 1018.70 1019.03 1019.35 1019.82 1020.31 1020.37 1020.78 1021.45 1021.13 1021.34 1021.56 1021.92 1020.60 1019.56 1017.67 1016.99 1018.28 1019.16 1019.91 1020.29 1020.38 1020.85 1021.30
1018.30 1018.91 1019.17 1019.73 1019.63 1019.35 1019.64 1019.70 1019.77 1020.00 1020.37 1020.40 1020.18 1020.28 1020.19 1020.01 1019.77 1019.62 1019.43 1019.08 1018.76 1018.82 1019.09 1019.56 1019.90 1020.18 1020.14 1020.50 1021.08 1021.19 1021.12 1021.36 1021.34 1020.53 1020.67 1019.02 1018.86 1017.42 1018.40 1019.29 1020.12 1020.58 1020.89 1021.28 1021.48
1018.59 1018.87 1019.37 1019.37 1019.46 1019.35 1019.35 1019.35 1019.43 1019.53 1019.93 1019.89 1020.21 1020.11 1020.34 1020.28 1019.98 1020.01 1019.73 1019.27 1018.92 1019.22 1019.44 1020.03 1020.20 1020.68 1020.57 1020.64 1021.13 1021.35 1020.68 1020.86 1020.91 1020.70 1020.09 1019.33 1018.72 1017.48 1018.28 1019.13 1020.03 1020.75 1021.15 1021.66 1021.56
1018.66 1018.56 1018.65 1019.11 1019.22 1019.27 1018.82 1018.84 1019.14 1019.47 1019.38 1019.52 1019.97 1020.29 1020.36 1020.37 1020.22 1020.13 1020.03 1019.63 1019.51 1019.51 1019.76 1020.30 1020.80 1021.18 1020.71 1020.37 1020.82 1020.38 1018.61 1019.58 1019.52 1019.07 1018.84 1018.77 1017.32 1017.71 1018.52 1019.41 1019.53 1020.37 1020.86 1021.42 1021.82
Wind_Speed
11 11 12 13 13 13 13 12 11 9 9 7 5 5 1 8 13 4 5 7 8 13 11 7 5 1 5 2 3 2 3 5 4 4 4 7 2 3 4 5 6 6 5 3 10
11 12 12 12 13 13 13 13 11 9 8 7 6 5 6 9 8 1 5 8 7 9 7 6 0 2 2 0 1 2 3 6 4 6 4 8 6 6 4 8 10 9 6 11 10
11 12 13 13 13 14 13 13 11 10 8 6 5 5 6 9 7 4 8 7 7 6 4 4 4 4 3 2 2 1 3 4 4 6 7 6 8 7 8 7 8 5 9 12 11
10 11 13 14 14 14 14 14 12 10 9 7 5 5 6 7 4 4 6 5 3 4 3 2 3 3 3 3 3 4 5 3 3 1 2 5 8 7 10 12 5 4 5 7 9
9 10 11 13 14 15 15 15 13 11 8 6 5 5 5 5 1 5 1 3 5 2 3 3 4 4 4 2 1 5 4 2 5 5 7 7 9 10 13 9 2 4 5 7 7
9 10 12 13 14 15 16 16 14 11 8 5 4 4 5 5 4 6 3 2 6 3 5 4 5 5 4 2 2 6 8 11 5 5 6 8 10 6 4 8 4 3 5 6 6
8 10 12 13 15 15 17 16 14 8 4 4 3 5 5 4 3 4 1 3 4 5 1 5 4 4 5 3 5 5 7 7 10 4 2 6 12 12 4 9 2 5 8 3 4
9 9 11 13 15 16 17 14 10 3 2 3 3 5 5 1 3 2 1 3 1 2 4 3 4 3 3 2 4 3 4 5 7 8 5 6 6 7 6 7 6 7 7 3 5
8 9 10 13 14 16 16 11 3 2 2 3 4 3 2 1 2 4 3 2 2 1 0 1 2 3 3 3 4 5 5 7 3 7 2 6 9 9 8 9 10 6 6 3 5
8 9 10 13 15 16 15 5 1 3 4 4 3 2 3 1 5 2 2 1 2 2 3 3 3 2 3 4 3 3 5 4 8 3 9 10 21 12 8 7 5 4 5 4 5
9 9 9 12 15 15 8 2 2 3 4 6 1 2 3 3 1 2 1 2 2 4 3 3 2 7 7 2 5 4 5 11 13 3 3 10 16 18 12 9 6 6 5 3 6
10 8 9 12 15 12 5 4 3 1 8 3 1 1 3 1 2 4 2 3 3 5 6 2 7 3 4 4 2 6 9 12 10 3 10 12 21 21 11 5 3 3 5 5 7
13 11 9 11 13 5 5 4 2 2 5 3 1 1 2 3 2 5 2 1 4 6 8 7 2 4 0 3 5 7 8 7 6 10 13 9 9 5 3 6 8 4 3 3 6
15 14 8 12 3 2 3 4 1 3 3 3 3 2 2 2 1 2 3 2 3 3 5 7 4 2 5 6 3 3 5 6 9 6 5 5 9 4 6 5 5 6 6 3 6
15 16 2 6 4 3 4 3 3 3 5 4 3 1 2 2 1 2 1 2 5 1 3 2 3 4 3 3 6 9 7 8 8 3 7 2 0 6 5 4 7 9 2 4 6
14 10 3 1 3 2 4 4 2 3 7 2 3 2 3 4 3 4 2 2 1 4 7 5 3 2 3 2 4 7 7 5 2 2 2 5 2 6 3 4 3 2 6 7 8
7 6 4 2 2 5 3 1 2 5 6 4 2 1 4 3 4 0 1 0 3 2 4 4 4 3 1 3 3 3 2 4 5 2 5 5 4 10 7 4 3 5 8 6 9
10 3 7 5 3 4 1 1 5 2 3 3 2 3 5 3 2 1 2 5 12 3 3 3 4 4 2 2 1 3 2 4 5 4 5 6 7 8 4 3 4 8 5 8 6
8 1 2 3 4 1 2 2 4 3 2 6 7 1 4 1 1 2 6 3 3 7 6 1 2 4 3 2 1 2 1 2 1 2 1 5 5 2 5 7 7 6 6 7 7
0 1 2 3 3 1 2 3 3 2 1 1 4 4 3 1 1 1 3 3 3 3 2 2 3 4 4 1 1 2 4 2 1 4 7 6 6 6 6 9 6 7 6 5 6
2 0 1 3 2 2 2 3 1 1 2 3 2 3 3 2 2 3 4 3 3 2 3 3 2 2 4 5 7 2 2 2 1 1 3 5 8 5 7 6 6 5 5 3 3
2 2 2 3 1 0 2 0 0 1 2 1 3 1 3 1 3 3 3 6 5 4 1 2 1 4 3 2 4 3 1 4 5 4 4 2 12 4 5 5 4 5 4 3 2
0 2 2 2 2 2 2 2 2 2 2 1 3 3 3 2 4 2 1 2 3 2 2 1 2 4 2 2 1 3 4 2 4 2 7 4 10 2 3 6 5 1 3 3 3
2 1 1 2 1 1 1 2 2 3 2 2 3 0 2 4 5 4 3 2 1 2 2 1 3 5 5 5 3 3 5 6 5 3 4 9 12 11 5 3 1 1 2 4 3
1 2 1 2 3 2 2 1 2 1 3 3 3 6 2 3 1 3 3 3 3 3 1 1 4 1 7 7 5 4 6 11 12 7 6 6 4 17 11 3 2 3 3 4 3
2 3 0 1 1 2 4 3 1 1 3 3 4 2 5 4 3 2 4 2 1 4 1 2 3 1 7 2 4 6 9 10 11 3 13 16 20 4 2 1 2 5 2 3 3
0 1 2 3 2 2 3 3 2 1 3 2 2 2 5 5 1 2 5 6 4 1 3 2 3 3 7 3 4 7 9 13 5 5 8 7 10 2 3 4 4 3 4 3 0
Wind_Direction
5 6 1 359 358 356 358 356 355 355 353 357 344 330 345 337 303 251 38 341 324 325 315 281 258 243 255 149 288 282 272 261 324 47 81 145 208 169 119 224 243 246 250 345 48
6 358 358 359 353 352 351 350 345 347 345 348 335 318 308 326 302 318 17 347 347 338 325 341 42 267 171 158 203 262 273 17 11 16 336 347 328 324 314 291 291 282 292 31 27
1 359 354 352 350 348 346 344 339 336 331 331 328 316 314 310 270 85 11 6 353 314 335 324 306 287 248 305 131 227 256 45 39 26 2 317 301 303 292 267 289 18 353 356 352
359 357 351 349 345 344 342 337 333 327 320 312 314 304 313 273 318 64 9 1 328 318 281 333 262 240 252 221 88 281 254 332 6 67 272 286 307 279 272 276 67 42 10 341 325
352 353 349 345 344 340 335 332 327 318 306 298 301 305 277 239 300 77 21 17 286 323 6 4 279 319 260 344 346 230 311 329 263 258 254 275 280 273 275 279 122 80 350 314 317
348 347 345 341 341 337 332 328 322 314 287 275 284 305 262 258 111 34 51 285 15 341 41 22 23 343 312 316 247 2 307 281 274 259 268 277 281 321 280 103 97 199 250 264 318
341 343 342 341 339 336 333 328 325 322 257 228 248 259 271 286 95 25 63 54 1 6 36 44 3 301 7 239 22 298 300 267 217 198 283 17 273 216 209 94 188 256 241 294 326
331 334 335 336 335 333 331 327 322 332 182 206 260 251 273 42 34 48 143 122 84 43 46 27 349 320 273 48 228 255 236 294 148 164 138 88 260 91 125 148 222 257 295 300 315
320 325 332 334 332 331 329 327 312 151 195 221 227 237 265 173 226 81 345 322 69 197 67 269 293 329 127 243 267 207 261 304 304 180 146 176 275 285 174 203 215 223 263 279 303
312 321 331 333 332 334 327 297 194 175 217 225 269 257 135 127 104 95 47 320 276 281 226 225 217 236 219 219 235 329 308 304 295 177 206 239 266 279 264 282 254 184 280 291 337
309 316 328 333 335 334 340 227 244 205 219 223 80 292 134 75 219 135 23 204 229 235 247 178 249 219 255 159 29 326 282 269 279 294 305 264 279 285 278 246 244 172 231 356 348
314 312 322 328 335 325 292 35 51 304 307 214 271 266 34 282 231 161 214 229 190 242 181 179 231 81 58 65 292 285 284 278 280 60 317 281 287 282 268 256 202 87 57 9 327
356 329 315 325 335 309 75 52 326 284 264 137 154 251 82 220 311 116 237 142 254 260 228 233 46 120 140 280 261 259 251 289 299 328 270 325 280 136 73 69 71 92 229 13 333
347 346 312 320 315 4 61 15 316 318 294 183 157 107 165 278 214 47 14 347 245 287 342 266 98 220 244 251 170 274 30 332 313 2 296 78 287 255 140 156 177 212 216 5 329
342 333 44 42 312 42 354 345 315 255 322 69 123 108 117 256 58 116 35 190 263 277 111 265 180 193 233 243 120 234 352 289 276 232 310 161 40 255 120 202 231 202 125 352 346
339 331 130 64 69 25 356 347 271 36 251 78 112 186 189 169 177 136 211 182 351 296 211 254 99 274 223 3 217 310 305 260 92 210 266 182 150 267 173 218 292 272 345 344 332
347 63 57 11 84 337 328 323 352 223 22 333 338 270 308 172 178 64 111 54 236 302 207 177 184 103 330 280 163 266 303 321 328 267 236 159 250 256 192 212 263 295 294 311 290
137 101 57 60 7 333 308 70 238 223 187 200 297 271 249 138 138 147 280 265 202 136 300 233 265 169 37 39 122 44 106 145 272 296 301 186 239 261 189 216 246 253 248 278 312
137 67 62 6 359 294 110 147 252 327 338 1 326 248 257 108 83 320 219 272 85 192 198 288 225 107 64 57 335 190 200 79 323 85 347 230 257 191 193 244 245 281 310 326 7
339 82 38 332 327 123 94 250 249 49 2 205 255 211 284 85 223 299 264 25 113 12 21 39 308 162 117 67 52 310 155 87 153 310 297 278 280 257 246 256 285 316 328 342 7
234 116 29 345 266 79 200 205 321 135 239 228 310 299 290 311 244 287 312 43 38 114 316 138 129 128 106 194 169 148 196 208 90 154 232 306 266 213 208 232 279 302 329 17 356
262 252 32 309 76 344 161 242 26 209 186 260 262 203 275 287 257 251 264 38 14 158 317 62 355 264 229 314 321 337 301 160 134 256 242 189 272 195 206 227 244 283 345 324 58
80 88 146 299 220 200 140 225 242 200 204 182 255 231 57 293 276 245 298 2 24 332 16 103 213 307 264 8 357 235 188 165 102 69 226 171 264 233 283 275 264 264 265 284 288
160 187 41 22 302 115 60 217 238 195 257 223 292 54 188 226 204 316 314 64 6 7 68 120 284 209 224 212 142 210 177 180 169 164 235 231 288 291 294 257 31 340 289 303 307
200 242 131 191 210 186 129 36 265 301 212 216 220 229 209 289 177 227 229 309 199 146 102 318 260 341 270 254 164 223 191 185 202 210 194 245 265 291 303 276 243 244 274 316 316
158 165 315 153 227 188 194 221 255 134 219 183 238 343 222 245 253 162 352 211 329 149 274 104 278 68 280 58 167 258 215 205 222 259 268 274 286 245 194 136 294 240 223 283 266
268 118 272 176 162 168 219 198 191 110 216 278 254 287 227 259 305 229 268 296 278 280 211 194 302 1 272 216 243 300 212 181 190 212 166 187 228 166 304 272 257 202 188 227 250